{"data":{"norad_id":57949,"epoch":"2026-05-24T23:03:11.462112Z","epoch_age_seconds":89111,"freshness":"FRESH","line1":"1 57949U 23148Q   26144.96054933  .00016107  00000+0  48798-3 0  9991","line2":"2 57949  53.1615  29.7350 0001630  83.5672 276.5516 15.34323932150108","mean_motion":15.34323932,"eccentricity":0.000163,"inclination_deg":53.1615,"raan_deg":29.735,"arg_perigee_deg":83.5672,"mean_anomaly_deg":276.5516,"bstar":0.00048798,"rev_number":15010,"period_min":93.852410821941,"perigee_km":461.81424586112,"apogee_km":464.04443348785,"semimajor_km":6841.0663396745,"source":"CELESTRAK","updated_at":"2026-05-25T13:38:18.462867Z"}}